Theta_e
301 301 300 300 300 300 300 300 300 301 300 296 294 297 298 298 294 306 308 312 311 303 296 299 296 295 298 302 299 300 298 297 297 296 297 296 300 297 296 296 295 296 295 295 294 294 290 293 291 293 293 295 297 296 295 297 297 297 294 295 294 292 285 284 286 290 293 295 296 296 292 293 290 291 292 290 286 289 286 285 285 282 284 283 283 279 282
301 301 300 299 299 299 299 299 299 300 299 295 296 297 297 298 299 302 310 311 308 300 289 290 292 295 298 298 298 301 299 297 295 296 297 297 297 295 295 295 297 295 297 294 292 295 286 291 292 291 293 292 293 292 294 296 295 296 293 291 294 286 287 287 282 282 284 287 291 291 291 291 289 289 291 291 290 290 288 287 284 279 281 283 281 276 283
300 300 299 299 299 298 298 298 298 298 299 298 297 296 298 297 297 299 302 307 305 295 298 295 294 294 293 294 293 294 296 299 298 297 296 299 297 295 294 296 298 295 295 293 293 294 292 287 294 293 292 293 293 292 294 296 295 294 294 294 294 288 287 286 278 276 274 274 277 280 283 286 288 289 289 291 289 288 286 282 284 279 283 284 280 280 287
300 300 299 299 298 298 298 298 297 298 299 298 298 293 294 292 285 293 297 299 299 299 301 299 295 293 292 291 292 294 292 295 296 299 296 298 298 298 297 295 295 294 292 291 292 291 295 290 288 291 290 292 294 292 290 292 295 293 293 287 290 286 287 287 284 281 279 282 285 290 289 287 284 286 287 287 288 288 285 284 280 277 281 280 282 283 284
299 299 299 300 299 298 298 297 297 298 298 298 296 293 294 293 286 289 286 294 294 292 297 295 296 291 295 287 292 290 292 293 293 299 292 296 296 296 296 294 291 290 291 289 290 292 290 293 291 289 289 292 295 291 291 290 290 292 292 291 290 286 284 286 286 285 285 287 287 288 288 285 286 285 285 288 287 287 285 282 278 285 280 275 283 285 283
300 300 300 300 299 299 298 298 298 298 297 298 296 290 293 287 288 290 292 289 287 289 289 293 292 295 295 290 293 290 290 290 288 293 294 293 295 292 293 293 294 293 291 291 286 289 289 290 287 291 290 290 290 291 291 291 289 289 292 292 290 286 282 285 286 284 287 287 287 287 287 286 286 285 285 284 286 285 282 282 285 284 279 277 283 285 283
301 301 301 300 299 299 298 298 298 298 298 297 294 289 288 288 289 288 290 287 287 289 289 291 292 292 294 291 291 289 289 288 291 290 290 291 290 293 286 289 292 293 293 291 287 288 283 283 288 287 286 286 287 286 289 291 287 290 289 289 290 287 283 286 286 284 285 285 286 287 285 285 284 284 285 285 285 284 284 284 285 284 283 284 284 284 284
301 301 301 300 300 299 299 298 297 299 299 297 290 288 287 286 286 285 287 286 285 285 287 288 290 288 292 288 289 289 288 287 290 290 289 285 288 293 288 290 287 287 286 289 286 289 289 287 284 287 284 284 288 285 286 285 288 287 287 288 289 287 281 285 283 281 280 283 285 285 284 283 281 283 283 283 283 283 284 284 284 284 282 283 282 282 281
301 301 301 301 300 299 299 298 298 300 298 292 288 286 289 289 290 291 287 285 283 283 284 286 287 286 288 286 289 289 289 288 290 288 290 288 286 288 286 286 284 284 285 287 288 288 285 284 284 284 285 283 287 283 283 285 281 284 283 285 284 286 280 285 282 278 277 281 281 281 282 281 279 279 280 281 280 279 281 280 283 281 279 281 281 279 280
301 301 301 301 301 300 300 299 298 299 299 293 292 284 290 288 289 289 289 284 287 282 283 283 285 281 287 288 288 287 287 286 289 285 288 286 288 287 286 286 286 285 286 286 288 287 285 286 286 286 286 287 285 286 285 285 283 282 282 284 281 283 281 279 279 275 275 280 281 279 278 277 274 276 279 281 282 282 283 283 284 283 283 279 277 278 280
301 301 301 301 301 301 300 299 299 300 298 292 290 288 289 288 287 287 288 282 281 283 283 282 283 284 285 286 285 284 284 285 287 283 284 285 285 286 286 285 284 283 283 286 289 289 288 288 288 288 286 285 285 285 286 286 285 284 282 282 282 282 281 279 281 274 275 279 277 276 273 268 270 283 285 284 281 282 280 280 282 284 285 280 280 278 277
301 300 300 300 300 301 301 300 300 300 298 296 295 291 291 291 290 289 285 279 279 283 282 281 283 283 283 282 284 283 283 283 283 284 283 284 285 284 284 283 284 280 288 288 289 288 289 289 288 287 286 285 285 286 286 284 285 286 286 282 281 281 281 278 280 275 273 277 275 272 267 269 280 279 282 280 280 280 280 281 283 280 276 276 277 277 277
301 301 300 300 299 300 300 301 300 300 300 296 296 290 291 292 290 287 285 282 277 281 279 279 280 281 282 282 281 281 282 282 283 283 283 281 281 282 283 282 281 283 290 288 288 286 282 280 282 282 282 284 284 284 284 284 284 285 286 285 282 279 279 279 277 278 276 274 272 266 267 275 275 279 280 281 280 280 279 278 281 279 279 280 278 278 279
301 301 301 300 300 300 300 300 300 301 300 298 295 294 292 292 288 287 285 280 278 281 281 279 279 278 279 280 280 280 281 280 280 281 279 283 280 281 283 286 286 289 289 289 285 283 279 279 275 276 276 279 278 277 280 283 284 283 284 284 285 282 281 279 274 279 271 273 271 271 276 274 276 276 278 279 277 278 277 273 276 278 279 280 278 277 278
302 303 302 301 301 301 300 300 300 300 301 299 296 293 293 293 293 289 288 283 276 280 281 276 279 280 280 279 280 278 279 279 278 278 280 280 279 282 284 285 286 287 287 285 281 283 278 276 269 270 270 269 265 268 276 273 279 279 281 283 284 283 278 279 275 272 278 271 270 270 269 266 270 276 277 281 280 280 279 276 274 278 276 279 279 277 278
301 302 302 302 302 302 301 300 300 300 302 300 296 294 293 294 294 293 290 283 280 273 278 282 283 280 279 279 280 278 278 278 278 278 278 279 279 282 283 282 284 285 285 283 282 277 274 270 267 267 266 265 268 264 266 274 271 277 278 279 280 282 282 280 276 272 274 271 268 267 265 267 276 273 278 278 278 280 279 276 271 278 276 278 279 277 279
302 301 301 301 301 301 301 302 301 300 301 300 295 294 292 295 293 291 287 285 281 276 283 283 284 283 280 278 280 278 280 278 280 275 275 277 279 278 279 280 282 284 283 281 279 275 272 269 266 268 268 267 261 267 270 269 265 269 276 276 275 274 276 276 272 271 272 270 268 266 270 269 274 276 279 279 281 282 278 267 269 277 277 279 279 278 279
301 301 301 301 301 301 301 302 302 301 301 302 296 293 293 294 295 294 288 284 280 279 284 284 282 280 279 280 279 281 282 279 279 279 278 277 274 277 277 277 278 283 286 277 278 273 272 270 268 269 268 273 271 273 265 269 260 267 270 274 271 272 272 274 269 271 271 272 269 271 272 277 277 276 278 279 281 277 269 265 274 278 278 279 279 278 278
301 301 301 301 301 301 301 301 301 302 301 301 298 295 294 294 295 294 290 285 283 278 285 287 287 284 285 286 283 283 283 282 282 278 276 275 277 276 277 277 282 275 282 274 278 272 272 271 274 270 268 270 272 266 273 267 268 272 271 269 268 267 267 269 271 270 269 270 268 269 272 278 279 277 278 280 276 268 268 275 279 279 278 280 278 277 278
301 301 301 301 301 301 301 301 301 301 301 301 298 292 294 295 295 294 289 284 285 282 285 284 285 283 286 283 280 279 280 281 282 279 277 274 277 276 279 274 279 274 275 278 272 276 272 270 271 272 269 270 270 273 268 270 274 270 271 273 271 271 267 268 269 269 270 270 267 266 263 275 278 277 276 277 272 274 278 277 276 280 279 279 278 278 279
301 301 301 301 301 301 301 301 301 302 302 301 299 294 291 295 294 295 294 290 286 281 283 289 288 287 287 285 286 286 284 281 281 279 281 280 281 278 271 271 276 275 272 275 269 273 273 270 273 270 273 272 272 271 267 267 267 275 274 272 271 276 269 270 271 274 267 267 265 266 274 277 279 279 275 278 279 281 279 278 277 279 278 279 278 279 280
301 301 301 301 300 300 301 301 302 301 301 301 300 295 290 294 294 295 294 292 287 284 285 289 289 289 290 290 290 289 288 287 288 288 282 280 281 280 278 273 269 272 274 273 271 269 271 267 267 266 268 270 271 269 267 268 267 270 267 271 266 276 272 274 270 274 271 269 273 276 278 278 280 281 281 281 282 281 280 279 279 278 280 281 279 279 280
301 301 301 301 301 300 300 300 301 300 301 302 299 294 290 293 292 295 293 287 288 289 289 287 289 289 291 291 292 292 291 292 291 289 288 283 279 282 280 279 275 280 277 280 277 276 274 271 271 273 268 271 271 269 266 270 269 271 269 276 275 279 279 278 274 273 277 279 279 280 279 280 279 281 282 282 282 282 282 280 279 280 281 281 279 280 280
301 300 300 301 301 300 300 300 300 300 300 300 299 294 292 294 294 292 288 288 285 283 285 287 285 282 284 285 290 291 290 289 290 290 291 287 280 279 283 283 284 279 277 280 284 279 275 274 274 274 270 274 272 270 268 267 269 272 271 272 275 277 278 274 272 276 273 268 278 277 278 280 280 280 282 282 281 281 281 280 280 280 281 280 281 280 280
301 300 300 300 301 299 300 300 300 300 300 299 299 298 291 290 293 291 286 281 281 281 277 282 283 287 290 293 293 291 291 292 292 290 289 289 286 281 280 284 285 282 279 282 283 279 276 273 273 272 269 276 275 270 276 271 271 276 269 272 274 273 280 274 274 274 272 272 276 278 280 280 281 280 280 280 281 281 281 281 281 281 281 280 280 280 279
299 300 301 301 300 300 300 299 299 299 299 299 299 292 289 290 293 293 289 289 286 284 277 277 282 289 291 289 287 290 293 291 290 289 289 288 288 287 286 286 284 287 285 284 282 279 276 274 276 275 272 273 280 273 273 276 274 278 274 273 277 277 277 270 274 273 275 277 278 278 279 279 279 280 281 281 281 281 281 281 281 280 279 279 278 278 278
299 300 300 299 299 300 300 300 299 299 300 299 298 294 292 293 294 291 288 287 283 278 280 277 282 282 283 285 289 289 290 290 290 289 288 289 287 287 286 285 283 283 282 281 282 280 278 277 276 273 276 274 279 276 277 275 275 273 273 276 279 277 272 275 274 270 270 271 274 277 272 272 277 280 281 281 282 281 281 280 279 278 278 278 277 275 275
299 299 299 299 300 300 300 299 299 300 300 299 298 292 291 290 293 293 293 290 285 280 279 276 278 280 284 278 286 289 290 290 289 288 288 287 287 285 284 283 283 281 281 279 275 276 276 274 273 278 278 278 276 273 278 278 277 274 274 276 279 275 276 276 272 271 271 276 278 279 279 278 279 280 281 282 281 280 279 278 279 278 277 276 275 274 273
298 299 299 299 299 298 299 299 299 299 300 298 289 285 287 290 293 294 294 292 289 286 283 283 281 279 278 281 286 287 289 289 288 287 287 287 286 285 284 283 281 282 282 281 280 278 277 276 280 277 275 280 277 273 275 270 271 270 273 278 279 280 281 279 278 278 278 280 280 280 279 277 279 281 281 281 279 278 278 279 277 276 273 272 271 272 272
299 299 299 299 298 299 298 299 299 299 299 293 287 286 283 285 291 292 294 293 290 287 281 278 275 279 282 280 279 283 285 287 287 287 286 285 285 284 284 283 282 284 282 281 280 275 278 278 279 281 281 284 276 275 272 272 271 273 278 279 280 280 281 281 281 278 277 280 281 281 280 280 281 280 276 274 273 275 277 276 273 272 270 269 269 269 268
298 298 298 298 299 298 298 299 299 298 299 287 285 279 279 277 286 293 295 294 293 286 282 282 277 282 278 279 280 281 283 285 285 285 285 285 285 284 285 284 283 283 279 279 279 279 280 276 278 279 282 281 279 274 272 272 270 273 277 279 279 280 280 280 281 281 281 281 281 281 281 281 279 276 275 272 271 271 270 269 269 268 268 267 267 266 266
298 298 298 298 298 299 299 300 298 298 294 286 284 283 284 286 290 292 295 293 291 285 280 277 277 277 277 279 277 280 284 285 285 285 284 285 283 285 283 283 281 283 282 279 280 279 278 280 279 279 278 281 280 274 274 272 270 272 278 279 280 280 281 280 280 281 281 282 280 278 278 279 279 276 276 272 269 268 268 268 266 266 265 265 264 264 264
298 298 298 298 298 298 298 299 298 297 291 291 294 293 294 295 296 295 295 290 287 284 285 279 274 276 275 275 274 274 282 281 281 282 280 285 281 283 278 282 282 281 285 280 277 276 280 280 280 277 280 283 276 275 272 272 273 277 279 280 280 280 280 281 281 281 281 278 278 276 275 277 275 269 268 267 267 266 266 265 264 263 263 261 261 263 263
297 297 297 297 298 298 298 298 298 298 296 288 284 286 290 295 296 295 292 289 286 285 283 278 274 273 273 275 272 276 283 279 278 281 276 282 283 282 279 280 280 277 281 277 280 279 279 279 277 277 279 277 279 274 270 273 278 278 279 280 280 281 281 280 280 280 278 272 270 271 271 268 267 267 266 266 265 264 264 263 261 260 260 261 262 262 261
296 296 296 296 297 297 296 296 293 291 285 286 286 289 291 296 294 295 292 287 280 278 278 278 278 273 272 271 272 274 280 280 276 279 277 279 284 279 280 276 278 274 276 283 278 277 276 277 280 275 272 277 274 271 273 275 277 278 279 279 280 280 279 277 277 278 270 266 265 265 265 266 266 266 267 265 263 263 262 261 261 260 261 261 260 260 259
295 295 296 297 297 296 292 292 289 286 283 284 286 292 295 296 295 292 290 288 284 279 277 277 277 274 274 270 271 274 282 277 279 280 279 278 276 280 279 277 272 276 281 278 274 278 275 280 277 271 277 272 270 273 275 278 278 278 279 278 280 279 278 278 276 265 263 262 262 263 263 263 265 266 264 263 262 261 261 261 260 260 259 259 259 259 257
295 295 296 296 292 287 285 286 290 287 287 291 292 295 296 295 290 289 286 285 284 282 278 276 273 275 276 274 273 274 278 272 279 274 275 274 273 275 275 274 271 278 276 274 275 274 277 283 276 272 273 271 273 278 279 279 279 278 278 280 277 270 267 264 264 264 262 260 260 262 262 262 261 262 262 262 261 260 259 260 259 258 257 256 256 256 256
295 295 291 285 283 281 280 284 283 288 295 294 294 290 287 287 280 282 281 279 282 280 277 278 275 276 276 275 270 279 278 275 279 273 271 273 274 270 275 274 274 277 268 271 274 281 277 276 273 272 273 277 279 279 279 279 280 276 272 268 265 264 263 262 261 263 260 262 264 261 259 259 260 262 261 260 259 258 258 258 258 257 256 256 255 255 255
293 289 286 285 282 280 281 281 290 295 291 290 288 283 279 281 278 275 275 278 278 274 279 277 275 278 276 275 276 281 278 275 273 274 271 277 273 269 273 268 276 275 269 268 272 280 271 271 272 272 271 275 276 277 279 275 266 262 262 261 262 261 261 260 261 263 265 265 263 260 260 263 263 261 259 257 258 257 257 257 256 256 255 254 254 254 254
285 282 282 281 280 283 287 290 295 290 287 282 281 280 275 279 275 271 275 270 271 274 277 272 279 278 279 275 274 274 281 275 271 270 273 273 278 269 272 269 273 272 266 268 270 276 270 267 269 270 269 274 275 278 272 266 264 259 258 259 259 259 258 258 258 258 258 258 258 258 257 256 256 256 255 256 255 255 255 255 254 254 254 253 254 253 253
284 282 281 281 280 280 284 289 286 283 281 278 276 275 273 271 274 273 273 270 269 268 273 275 277 276 279 279 278 274 281 279 273 274 275 269 278 274 269 267 273 267 265 266 271 268 266 263 263 265 270 275 276 270 261 260 259 257 257 257 257 257 257 257 257 257 256 256 255 255 254 253 253 254 254 254 254 253 253 253 253 252 253 253 252 253 254
286 285 283 283 282 283 285 284 281 278 277 277 273 270 273 271 271 267 271 269 270 269 269 275 273 275 275 278 277 279 275 274 274 277 274 270 277 272 269 268 270 266 264 269 268 266 266 265 264 264 269 272 264 255 258 256 255 254 255 256 256 256 256 255 255 255 255 254 254 254 254 253 252 253 253 252 252 252 252 252 252 252 252 252 252 252 252
292 286 284 279 280 280 280 276 277 276 271 270 268 266 269 265 269 270 270 272 269 268 269 272 272 280 277 276 273 274 276 278 275 272 272 270 277 273 268 266 264 263 267 267 267 264 263 263 262 269 273 268 256 255 255 255 255 255 255 256 255 256 255 255 254 254 254 254 253 253 252 252 251 251 251 251 250 250 250 251 251 251 251 251 251 251 251
284 283 280 278 277 278 278 269 277 270 269 269 268 265 266 264 266 266 264 268 268 268 273 273 273 274 271 275 275 274 274 277 278 269 268 272 270 267 267 263 266 269 269 265 264 263 265 263 267 271 263 255 252 254 254 253 254 254 254 254 254 255 255 255 255 254 254 254 253 253 252 251 251 251 250 249 249 249 250 250 250 250 251 250 250 251 251
279 276 275 274 272 276 273 267 275 269 267 268 272 267 267 266 268 268 270 272 272 273 275 275 275 274 272 269 271 273 277 268 275 269 267 270 266 267 265 266 266 265 265 264 261 261 260 261 266 263 261 255 255 254 254 254 253 253 253 253 254 254 254 253 253 253 253 253 252 252 251 251 251 251 250 250 250 249 249 249 250 250 250 250 250 250 251
277 274 274 270 267 272 271 267 267 265 269 271 269 268 269 270 271 271 270 268 270 269 272 273 274 274 269 268 272 271 267 268 269 269 268 267 264 264 267 267 267 264 262 260 259 261 265 269 271 271 264 258 254 253 252 253 252 252 252 251 252 252 251 251 251 252 252 252 252 252 251 251 251 250 250 250 249 249 249 249 249 249 250 249 249 249 249
277 276 273 272 269 271 270 266 266 267 268 267 268 271 273 273 270 270 266 266 272 271 272 273 274 273 271 267 267 267 264 266 268 268 268 263 263 265 270 265 263 263 261 260 259 260 262 267 267 256 253 254 252 251 251 251 251 251 251 251 251 251 252 251 251 251 252 252 251 251 251 250 250 250 250 249 249 249 249 249 249 250 249 248 249 249 249
273 275 273 267 266 269 267 268 264 261 260 262 261 260 259 262 269 267 265 264 271 273 272 272 270 269 269 268 269 268 264 262 266 266 268 266 268 263 263 262 261 261 260 260 264 265 268 263 254 252 253 252 251 250 250 250 249 249 250 250 250 250 250 250 250 250 250 249 249 249 249 249 249 249 249 249 249 250 250 249 249 249 248 248 248 248 248
273 271 270 268 263 262 262 262 265 270 263 259 259 261 263 268 271 271 264 261 269 272 273 273 271 271 267 269 268 268 265 266 263 264 266 264 263 262 262 258 257 255 260 262 268 269 264 255 252 251 251 251 250 250 250 250 249 249 249 249 249 249 250 249 249 249 249 249 248 248 249 250 249 249 248 248 248 249 251 250 249 249 248 248 248 248 248
268 266 264 261 262 262 261 262 265 264 261 261 262 263 262 266 265 261 262 264 265 269 272 275 274 271 266 266 264 265 264 265 264 266 264 262 262 261 260 257 258 259 264 263 261 257 252 251 251 250 250 250 250 249 249 249 250 249 249 249 249 249 248 248 248 248 248 248 248 248 248 247 248 248 248 248 249 250 249 248 248 248 248 248 248 248 248
268 267 264 263 264 264 266 264 265 262 261 264 263 263 263 265 264 263 264 264 267 269 266 265 267 265 265 263 263 262 264 266 264 264 263 262 261 260 260 261 264 265 264 255 252 253 252 251 252 250 248 248 249 249 249 250 248 249 248 247 248 248 248 248 247 247 248 248 248 248 247 246 248 248 248 248 248 248 248 248 249 248 248 248 248 248 248
266 265 264 261 259 259 262 266 266 266 266 265 267 264 266 264 261 262 265 267 269 270 267 262 264 264 264 263 264 263 264 265 263 261 259 261 258 259 257 263 265 260 257 253 252 251 250 249 249 250 249 249 248 247 246 245 244 243 242 243 243 244 245 247 247 247 247 246 246 245 245 246 246 246 247 247 247 247 246 248 250 250 250 250 251 250 250
Wind_Speed
6 5 5 5 3 4 5 5 5 10 9 2 1 1 4 4 2 3 1 5 11 9 10 6 6 7 3 5 2 1 2 3 0 3 1 1 3 1 4 6 7 6 8 6 6 6 6 5 7 5 5 10 7 3 4 2 2 2 3 1 1 4 2 3 11 11 11 13 11 3 4 3 1 4 3 1 8 9 12 11 6 8 8 10 9 14 1
5 6 6 4 4 2 3 3 4 6 8 1 1 4 5 3 3 3 2 2 5 12 13 12 9 6 5 6 11 5 2 1 1 3 3 5 2 4 3 2 6 6 0 2 6 3 4 4 7 5 1 4 2 4 2 3 2 2 3 2 2 2 4 4 7 8 6 8 5 5 3 2 2 3 3 4 6 7 6 9 1 8 8 14 14 15 6
3 3 3 4 3 2 3 2 2 3 6 2 2 5 3 4 2 1 2 2 3 12 6 8 10 11 14 10 13 13 9 5 9 10 7 3 5 1 3 7 2 4 1 2 0 2 9 5 3 4 3 5 1 3 4 4 2 3 1 5 2 2 3 2 6 8 9 9 10 8 4 0 2 1 4 5 4 7 5 8 6 11 2 14 12 11 3
6 5 4 3 3 3 2 2 1 2 6 5 1 1 3 3 5 1 1 2 2 3 1 1 8 10 10 11 12 12 12 6 1 6 6 9 4 7 6 2 1 6 2 4 7 8 5 8 3 1 3 1 2 1 3 2 1 2 7 4 2 1 3 5 8 10 11 13 11 1 2 3 8 5 5 9 8 9 7 7 11 13 10 11 9 12 13
7 7 7 7 5 3 1 1 1 1 5 5 1 1 1 1 4 5 6 2 4 3 1 2 5 6 9 6 4 12 15 10 4 7 5 4 10 5 8 5 5 5 7 10 12 13 12 9 11 11 13 5 3 1 3 1 2 3 3 4 3 1 8 11 15 15 16 18 18 18 14 17 17 16 15 13 13 13 15 12 14 8 12 13 8 17 14
8 7 6 6 5 4 4 3 1 1 2 4 0 1 1 2 1 3 2 2 5 7 7 6 3 2 11 8 4 7 7 6 7 2 1 3 1 7 1 5 12 11 9 5 5 5 8 7 8 6 4 5 1 5 1 3 1 1 2 3 4 5 11 13 15 17 16 18 20 19 18 16 18 18 18 20 20 18 20 20 20 16 14 17 12 16 16
9 9 8 7 7 6 5 4 2 3 3 3 0 3 1 1 1 2 3 3 2 1 3 2 7 6 8 5 10 14 14 13 7 2 0 2 2 5 7 7 6 10 10 7 7 7 7 6 6 3 3 3 3 3 5 3 2 2 3 4 3 3 11 12 14 15 14 17 17 16 16 14 15 15 17 17 18 21 21 22 18 19 20 18 17 18 23
10 9 9 9 8 7 7 6 3 8 6 3 2 2 2 3 2 2 3 5 4 2 2 1 4 10 7 5 11 11 12 15 9 2 4 6 5 2 7 9 4 1 1 2 5 6 8 6 11 1 2 4 3 3 2 4 1 0 5 2 4 8 8 7 2 5 7 7 9 7 9 11 12 12 14 15 16 18 17 17 18 17 13 16 19 19 20
10 9 8 8 8 8 7 5 4 8 4 2 2 1 1 1 2 1 5 3 3 4 3 4 6 8 9 13 11 6 10 14 7 6 4 7 8 1 6 4 2 1 2 4 9 0 2 2 2 2 0 7 1 2 1 6 4 7 3 2 5 5 5 6 6 10 10 10 12 12 15 16 17 16 17 20 21 20 15 16 11 11 15 19 20 18 17
11 11 11 10 10 9 8 7 7 7 7 2 0 1 1 1 1 0 1 2 5 4 4 4 6 9 8 9 6 4 6 1 5 7 2 6 5 4 4 1 1 3 4 9 6 2 3 4 3 3 2 3 2 3 3 2 3 1 1 3 3 3 3 4 4 10 8 9 9 9 6 7 12 18 19 20 20 19 20 18 17 20 21 18 16 15 2
12 12 11 11 11 11 11 10 9 12 5 3 2 1 1 1 2 1 2 3 1 5 5 5 7 1 5 1 3 2 3 2 2 9 4 5 5 6 4 4 1 3 5 2 4 5 3 3 3 4 5 6 7 6 8 9 9 9 3 2 3 4 6 8 5 8 6 7 4 3 3 10 10 1 5 12 17 16 18 17 17 19 15 6 2 1 2
14 13 13 13 12 12 12 12 11 14 9 4 3 2 1 2 3 2 2 5 2 4 5 5 6 2 5 2 3 2 4 2 3 4 3 3 2 2 3 1 2 3 2 4 3 2 2 2 2 5 7 9 9 10 11 13 12 10 10 9 6 7 7 10 5 8 8 7 1 7 14 13 2 2 3 5 6 4 8 16 17 8 2 1 2 4 4
16 15 14 13 14 14 14 13 13 14 11 6 4 4 2 1 2 2 2 2 2 6 5 3 2 3 4 6 4 3 4 4 2 2 2 1 2 2 2 2 3 2 4 4 3 1 5 7 9 11 13 12 9 11 16 16 14 14 13 14 12 12 12 9 7 9 6 3 6 14 12 3 4 2 1 1 2 7 8 13 14 5 4 6 6 6 6
17 18 18 16 15 15 15 15 14 15 15 9 6 4 4 4 4 2 3 3 2 2 2 2 2 3 6 5 4 2 3 1 3 1 2 3 5 4 4 2 1 1 2 3 1 3 5 5 6 3 5 5 5 7 13 15 15 15 14 15 14 15 10 10 10 7 11 8 10 13 6 11 10 9 3 7 7 6 6 10 3 6 6 7 7 6 6
14 14 16 17 17 16 15 15 16 15 18 14 5 3 5 4 4 3 1 2 2 2 5 4 5 9 8 5 5 3 4 2 2 3 1 1 1 4 3 1 1 1 1 2 1 2 4 1 1 4 3 2 3 3 4 2 2 2 7 9 11 12 12 8 10 4 10 13 15 14 10 9 3 1 1 2 1 2 1 2 5 4 4 4 7 7 5
17 17 17 16 14 14 15 17 15 14 20 16 7 5 6 6 5 4 2 3 2 1 5 10 5 7 6 3 7 8 5 4 3 1 1 2 3 2 1 1 1 2 3 3 1 2 0 2 3 2 4 3 3 2 3 3 4 3 4 0 5 8 12 12 11 7 9 8 11 10 9 6 5 7 2 0 2 0 4 1 7 4 8 4 5 5 4
17 17 18 18 18 18 18 15 16 17 18 18 6 6 5 7 5 5 4 3 2 4 4 4 8 5 6 3 3 3 5 4 5 2 2 3 4 1 4 1 1 3 5 4 4 3 1 2 0 1 2 2 1 3 3 1 2 2 3 4 5 3 5 5 7 10 10 11 10 12 4 3 2 1 1 3 1 3 1 9 6 2 8 7 5 4 2
18 18 18 18 18 18 19 18 16 16 16 19 9 6 4 7 6 8 3 4 5 5 5 8 12 7 7 7 4 3 5 2 2 0 1 1 2 2 2 1 2 3 6 5 5 3 5 2 6 7 7 1 3 4 5 2 1 2 1 1 1 1 1 6 11 12 12 14 10 8 8 5 2 4 1 4 2 1 6 15 2 6 6 3 4 5 4
18 18 18 19 19 18 19 19 19 19 19 16 7 5 3 8 8 8 4 4 6 6 6 11 9 6 3 3 2 4 4 5 5 3 1 1 2 3 4 1 1 2 5 4 1 4 6 6 1 1 2 2 3 4 1 1 4 1 2 3 2 2 2 3 3 8 12 11 11 10 8 3 5 0 6 3 2 5 11 3 3 7 6 5 6 6 5
19 19 18 18 18 18 19 19 18 19 20 21 11 8 4 10 10 12 9 8 6 10 7 11 10 12 7 7 6 5 2 3 6 5 4 3 1 3 2 1 1 3 0 4 3 3 4 6 6 2 4 6 3 2 1 5 0 3 2 2 4 3 2 5 7 2 0 4 6 8 10 1 5 7 3 2 4 5 2 3 1 3 5 6 7 7 9
21 20 20 20 19 20 19 18 19 18 19 22 15 7 5 6 8 11 11 8 6 9 9 9 8 14 11 13 14 12 12 10 10 7 7 3 4 3 3 4 5 4 4 4 7 6 4 4 3 3 3 3 4 2 5 1 4 5 4 6 6 2 7 7 6 3 9 8 8 5 3 1 6 7 5 4 8 0 3 1 3 5 6 4 4 8 9
18 18 18 19 20 21 20 19 19 20 21 21 19 7 8 7 8 9 9 7 8 10 1 5 10 12 15 15 11 12 15 16 12 9 6 5 4 8 2 4 5 4 2 3 2 1 1 1 3 1 3 3 0 5 1 2 9 1 3 1 4 8 11 8 8 1 4 6 8 2 1 1 3 6 5 3 6 4 5 3 5 5 6 6 6 9 9
20 21 21 20 20 21 21 21 21 20 21 21 15 8 10 7 10 9 9 7 4 3 1 2 1 5 4 8 11 11 14 9 7 7 8 7 5 7 7 6 4 3 2 5 6 3 3 5 5 2 0 3 7 4 1 7 6 3 5 8 9 8 7 2 2 3 6 9 11 5 10 10 6 8 7 9 11 12 7 5 7 8 9 6 7 8 9
22 23 23 22 20 23 23 22 22 22 22 23 16 8 8 7 8 6 2 6 7 8 7 6 5 9 12 15 13 8 8 9 14 12 9 8 8 6 4 7 3 2 2 6 4 5 3 2 2 3 7 4 5 6 9 9 9 5 6 9 5 10 7 3 7 11 10 12 11 10 15 13 12 11 9 10 11 11 9 8 9 9 8 6 7 8 9
22 23 22 22 22 23 23 23 21 21 22 23 18 10 3 3 8 11 9 6 5 7 7 4 14 18 13 8 6 10 14 10 7 11 11 10 12 12 12 10 12 12 12 9 4 4 2 5 3 3 9 5 6 10 8 8 10 9 8 12 7 9 8 8 13 14 15 18 18 15 13 15 15 10 13 14 11 10 10 9 9 9 7 7 6 4 8
23 22 22 23 23 22 23 24 22 23 23 23 18 8 9 9 9 10 7 4 1 2 6 8 5 2 3 7 12 13 9 11 13 14 16 16 15 15 15 3 4 7 2 4 6 6 3 2 4 5 5 5 8 8 11 12 10 8 11 15 11 4 7 4 4 10 13 17 20 18 18 20 19 15 12 11 11 12 12 10 8 8 9 7 4 4 5
22 22 23 24 24 23 22 22 24 25 24 22 14 8 9 8 12 14 12 9 5 5 7 8 3 1 0 9 3 4 8 11 12 15 15 15 14 13 9 8 7 3 4 3 3 4 3 7 6 9 9 5 5 6 9 8 12 11 11 16 9 9 11 6 3 10 12 13 14 11 8 11 12 11 11 11 11 10 11 8 5 6 8 6 5 3 1
22 23 24 23 23 22 22 24 24 25 22 23 14 8 8 7 10 11 10 9 11 6 2 1 0 2 2 2 6 7 9 12 14 14 13 15 17 13 13 10 6 6 6 7 3 6 8 9 12 5 2 3 6 10 9 9 7 10 14 16 10 14 14 9 12 11 13 15 14 11 13 15 17 16 12 7 4 5 8 9 10 7 4 2 3 4 3
23 23 22 21 23 24 23 23 24 25 24 17 5 6 1 6 7 10 11 10 8 6 5 2 2 1 4 2 4 6 7 11 12 13 14 14 15 14 12 12 10 10 8 7 7 7 9 11 5 6 6 6 6 6 5 7 8 11 15 18 15 17 14 13 16 18 19 19 17 14 10 14 16 14 12 5 3 5 9 7 2 1 3 3 1 1 2
21 21 22 22 24 24 24 23 24 24 21 5 5 2 4 4 9 12 13 10 9 4 4 5 5 4 2 1 3 4 6 10 12 13 13 11 11 11 12 13 15 14 8 9 10 7 9 7 10 11 7 10 7 2 6 7 11 14 20 21 18 14 11 13 16 16 17 18 16 13 11 12 11 7 3 0 2 3 5 4 2 3 3 2 1 1 2
21 22 23 23 23 23 24 23 23 24 18 4 5 3 4 6 10 13 18 13 11 6 2 2 5 1 2 2 2 7 9 9 10 11 14 13 12 12 11 7 4 7 7 6 7 9 4 5 7 9 8 13 10 6 7 7 10 11 21 18 16 14 14 15 14 15 18 18 16 13 11 13 3 2 6 5 4 3 1 2 4 4 3 2 1 1 1
21 22 22 23 22 23 23 23 24 22 9 10 11 8 4 4 3 13 19 12 10 5 4 3 2 2 3 2 1 1 7 9 8 8 6 7 9 9 6 9 9 9 8 7 7 3 7 7 9 11 10 14 11 3 4 7 10 16 19 12 12 11 11 12 13 14 14 14 12 11 13 16 8 9 7 5 5 3 3 4 3 3 3 2 2 1 1
21 21 22 22 21 23 24 23 26 20 8 12 9 4 6 6 14 18 18 11 6 2 3 4 4 1 2 3 1 1 4 3 4 7 6 8 6 6 4 7 7 5 9 7 6 5 5 8 9 13 12 8 5 3 5 9 14 21 18 13 10 9 12 12 12 11 11 4 6 11 14 13 3 5 5 5 4 4 4 3 3 2 2 2 2 3 3
22 21 22 21 21 23 23 23 24 24 12 5 5 10 7 8 17 23 15 9 4 2 2 4 3 5 4 1 1 2 8 7 6 9 5 6 4 6 6 6 8 5 8 11 5 1 2 2 9 5 2 8 6 4 4 12 20 19 16 14 13 13 13 14 12 14 7 4 1 2 4 4 4 3 3 4 5 4 4 3 3 2 1 2 2 2 1
22 23 23 21 20 19 22 21 13 8 8 6 6 4 9 17 16 24 21 10 7 4 3 3 2 4 3 1 4 2 4 4 6 9 8 4 5 7 4 4 5 6 4 5 3 8 9 8 5 3 7 4 5 5 9 13 13 15 15 15 15 14 13 12 15 12 3 3 1 1 2 1 3 4 4 4 3 3 3 3 2 3 1 2 1 1 1
21 23 21 20 18 14 8 8 7 5 4 6 6 11 24 22 23 16 15 5 3 5 5 4 6 8 9 9 8 2 6 3 1 4 4 3 1 0 2 4 4 5 3 6 6 9 9 6 5 6 6 6 11 11 14 13 15 16 16 16 15 13 14 14 9 4 4 4 2 1 2 2 4 3 3 3 3 2 1 1 2 1 1 1 1 1 2
20 20 19 15 6 2 7 6 4 6 6 4 8 18 23 17 4 7 4 0 2 2 4 5 5 9 12 5 1 2 5 4 4 3 3 3 4 1 3 2 6 3 4 4 5 9 10 8 5 8 9 11 12 13 14 12 14 14 17 15 9 2 3 3 4 6 4 3 3 1 1 2 2 2 3 3 2 2 1 1 1 2 1 2 3 3 3
17 15 4 2 2 4 4 6 5 5 12 19 18 10 10 10 3 4 2 4 1 5 2 3 7 2 2 5 4 6 6 3 4 6 2 2 3 2 3 4 5 6 8 6 8 5 2 4 6 8 11 12 15 12 11 14 13 8 6 0 3 3 4 5 5 6 2 3 6 4 3 4 4 2 3 2 2 1 1 2 2 2 2 3 3 4 5
11 3 4 3 3 5 5 2 7 17 10 7 4 2 3 1 4 4 5 3 3 4 4 8 9 8 8 9 2 3 5 7 6 3 6 6 5 4 3 4 5 4 4 1 4 9 5 4 5 6 9 12 12 16 15 8 2 3 3 2 4 4 5 4 3 4 5 4 0 2 1 2 4 3 3 1 0 1 2 2 3 3 3 4 5 5 6
4 5 4 4 6 3 2 8 20 14 4 4 1 3 3 2 5 3 2 3 2 2 4 7 6 9 12 11 8 8 4 5 8 8 6 2 2 3 1 1 2 3 5 7 4 4 4 5 5 6 10 9 13 15 7 6 6 4 3 4 5 6 4 5 5 4 5 5 5 4 4 4 3 2 1 0 2 3 3 3 3 4 4 5 6 7 8
3 2 2 5 2 2 1 6 2 2 3 3 1 0 1 2 2 1 3 3 2 3 1 3 6 6 6 7 8 10 5 3 1 2 3 4 1 5 2 3 1 1 2 3 1 3 1 0 2 7 11 9 14 6 5 4 5 5 4 4 5 5 6 5 5 4 4 4 4 3 3 3 2 1 1 1 2 4 5 5 5 4 5 6 8 8 8
6 5 2 4 2 2 5 1 1 3 0 1 3 4 4 1 2 0 2 6 6 3 3 4 7 11 11 14 10 6 1 0 2 1 3 5 5 5 2 0 1 4 4 1 3 1 2 4 3 5 7 10 2 4 6 7 5 7 6 6 6 5 4 4 5 4 4 4 3 2 1 1 1 1 2 3 4 4 4 5 7 6 5 6 5 6 7
10 11 7 4 2 1 1 3 3 3 4 3 3 2 2 3 5 6 4 1 2 2 3 2 1 3 4 3 2 1 3 2 3 1 2 4 1 2 2 1 2 2 3 1 1 2 3 5 5 12 8 5 3 4 3 5 6 5 6 5 5 3 4 4 4 3 2 3 1 1 1 1 3 3 2 2 4 5 5 5 6 7 7 7 6 6 6
3 0 2 1 3 3 3 6 2 3 2 2 5 8 5 4 3 3 2 3 3 2 6 11 9 11 8 3 6 4 1 1 3 2 0 1 2 3 2 3 4 1 3 0 2 5 5 3 8 7 1 1 1 4 5 6 6 6 6 5 5 5 5 4 4 4 2 2 1 0 0 2 3 3 2 2 3 6 8 8 7 7 7 6 7 7 8
5 1 1 1 3 3 4 4 3 3 7 6 4 4 5 11 9 7 9 4 6 9 10 7 9 9 7 2 3 0 2 3 0 4 2 3 0 1 3 2 1 1 2 3 1 2 1 7 6 4 6 6 6 6 4 5 5 6 6 5 5 4 4 4 3 2 1 0 1 1 2 3 2 4 2 4 4 4 5 8 7 6 6 6 7 8 8
6 6 4 3 3 3 4 2 2 4 2 3 5 5 4 3 5 8 3 4 4 2 9 10 8 7 5 1 5 5 2 3 3 3 2 2 3 3 2 1 1 1 0 1 3 7 11 9 7 9 2 4 7 6 6 4 5 5 7 6 5 4 3 3 2 1 1 1 1 2 3 3 2 3 5 4 4 5 5 6 6 6 7 7 9 9 8
2 1 2 1 2 2 2 4 5 4 3 3 4 7 9 7 4 2 2 2 5 3 6 4 5 5 10 3 3 2 2 1 3 2 3 1 3 1 2 2 2 3 4 5 5 5 6 8 4 3 3 7 9 8 7 6 4 4 5 4 4 2 2 2 1 1 1 1 3 3 3 3 3 3 4 5 6 5 6 6 7 7 7 9 9 8 8
3 1 2 3 4 4 7 5 2 2 2 0 0 1 2 0 5 3 3 1 4 8 11 8 6 3 4 2 3 4 2 1 3 2 2 2 2 3 1 1 3 2 3 4 9 6 7 1 1 3 3 6 8 11 8 7 4 6 4 3 2 2 1 1 1 2 1 2 3 3 3 3 3 4 4 5 6 7 6 7 8 7 7 7 7 8 8
2 3 3 3 0 0 1 2 4 7 2 1 1 0 1 6 7 5 3 2 7 8 6 7 5 5 3 2 4 3 2 2 4 3 2 0 3 4 4 5 3 4 5 6 8 6 2 2 3 6 6 8 6 7 6 6 6 6 5 4 2 1 1 3 3 3 2 3 3 3 4 3 3 4 5 5 6 7 6 6 7 8 8 8 8 8 8
3 2 3 4 2 1 0 1 2 3 1 1 1 1 1 2 2 0 1 3 1 6 4 5 3 4 2 3 1 0 1 1 3 2 4 5 4 1 3 2 4 6 6 4 4 1 2 2 5 6 7 8 7 8 7 5 3 3 3 2 1 1 2 3 4 3 3 3 3 3 4 4 4 3 4 6 6 6 7 8 8 8 8 8 7 7 8
2 2 1 1 2 2 5 3 7 4 3 6 5 5 5 5 3 4 0 2 5 5 4 3 2 3 2 2 2 2 2 2 3 4 4 4 3 4 5 7 9 7 3 1 0 2 5 4 4 5 8 7 5 5 5 4 3 3 2 1 1 1 2 3 4 4 3 2 2 3 4 4 4 4 5 5 6 6 6 8 8 7 7 8 7 8 8
2 2 2 0 1 2 1 1 0 1 2 2 4 3 4 4 3 3 2 4 5 9 7 2 4 2 2 4 3 1 1 2 1 2 0 4 3 4 6 8 5 0 2 3 3 3 4 3 3 6 6 6 6 5 4 4 2 1 1 1 2 1 2 3 3 3 3 3 4 3 5 5 5 4 4 5 5 4 5 6 6 6 6 5 7 9 8
Wind_Direction
151 128 107 80 74 71 51 28 15 29 13 55 355 212 149 196 108 36 207 207 168 164 205 195 191 212 241 51 289 102 309 200 320 117 130 193 227 170 213 215 233 245 246 242 245 205 256 205 233 208 221 245 247 330 324 104 46 74 308 298 326 85 238 258 256 266 266 269 275 241 152 160 268 232 226 194 237 220 250 258 322 281 283 260 252 246 206
189 160 124 106 101 87 59 29 24 35 40 62 267 151 169 139 111 111 89 152 205 184 197 204 203 222 242 240 247 239 225 102 170 185 230 206 190 204 194 358 228 262 214 148 237 200 258 246 254 261 275 258 104 324 33 233 191 220 252 238 287 292 228 242 283 284 272 250 225 236 85 137 235 286 252 252 278 292 287 293 88 269 211 248 260 261 266
136 153 160 164 147 95 89 62 40 31 26 61 227 153 131 112 15 241 289 49 206 206 210 209 206 210 222 226 240 242 248 241 251 245 244 203 225 188 244 244 172 224 126 214 25 181 238 274 213 224 241 256 72 321 30 18 111 79 89 102 111 182 287 289 255 253 262 263 263 271 266 75 21 316 308 299 319 308 324 259 272 268 201 226 238 255 292
202 203 205 212 184 150 146 135 57 29 34 22 79 211 112 194 151 259 338 28 5 287 344 124 208 216 219 232 240 244 247 249 139 197 239 216 229 233 246 23 140 236 161 225 241 246 197 209 263 207 233 204 308 163 340 355 114 189 138 144 150 251 195 208 233 256 265 270 280 166 153 251 266 248 231 265 272 271 250 268 267 260 279 277 287 288 285
214 210 202 196 196 182 147 228 73 60 24 54 80 27 226 340 132 162 188 5 289 231 342 193 181 202 196 220 213 234 236 242 273 176 240 215 216 223 229 201 202 232 226 244 262 257 256 228 246 247 263 250 255 325 219 354 15 174 134 179 92 198 264 245 249 248 256 267 271 278 278 275 274 274 269 270 267 267 274 261 254 275 296 266 226 262 267
215 216 223 222 196 183 201 241 132 30 45 10 274 162 216 170 241 100 297 201 198 203 242 211 207 194 179 225 233 248 226 189 215 88 223 59 218 202 314 195 225 235 219 204 235 221 233 219 238 256 248 270 316 276 163 238 36 107 180 178 199 245 258 258 258 258 262 265 270 272 273 270 274 274 276 274 272 270 263 260 267 273 257 270 285 285 280
223 219 222 220 219 195 201 203 171 117 93 86 350 147 292 61 20 79 328 177 332 244 45 137 206 217 191 222 232 245 241 239 222 186 87 114 291 209 239 238 227 234 244 236 244 243 272 259 242 245 273 271 343 283 294 209 40 196 190 181 200 214 247 253 247 261 260 264 266 270 274 279 275 269 267 268 269 266 267 274 279 272 272 282 290 284 279
223 220 217 216 216 214 209 191 164 132 101 73 60 9 171 179 157 172 58 59 88 66 73 96 200 226 201 219 227 235 240 245 229 157 227 260 250 54 247 252 78 330 47 244 244 247 261 281 272 271 92 282 194 287 261 328 34 12 247 216 213 214 252 221 226 261 248 236 249 253 257 268 264 261 260 258 254 259 261 272 267 273 274 266 265 267 268
224 221 218 224 225 220 221 199 178 152 98 12 65 22 22 43 21 31 135 149 152 113 136 157 189 209 221 226 233 227 230 246 231 249 30 246 255 206 247 79 139 206 218 223 251 185 169 121 296 86 229 269 16 146 238 91 318 333 315 304 315 278 286 348 294 285 275 270 277 278 279 273 268 267 258 256 258 262 257 255 264 273 274 273 275 270 268
223 222 222 221 223 219 208 211 187 161 104 96 69 101 190 78 304 307 324 101 157 138 137 135 143 219 217 210 216 217 249 15 132 240 141 54 66 91 107 29 74 246 225 248 248 147 124 130 155 162 171 232 229 250 263 295 235 269 279 315 292 281 296 277 268 260 248 254 268 286 289 281 262 243 242 250 254 253 259 257 255 251 263 266 261 265 327
223 222 223 221 219 223 220 206 207 155 133 148 125 177 162 182 126 88 338 124 221 154 151 194 198 295 95 309 160 96 130 95 101 211 186 112 89 63 64 54 41 264 245 88 101 154 170 164 200 192 213 220 227 220 227 228 222 215 211 268 228 250 252 254 253 261 271 278 286 80 278 245 240 128 227 238 250 250 251 252 246 244 239 268 335 96 138
221 219 218 218 217 224 219 216 209 163 163 171 115 156 184 121 76 59 140 179 185 146 197 190 197 187 156 89 117 132 131 115 104 23 156 100 158 40 76 16 236 265 71 87 119 151 218 258 236 233 236 247 248 246 239 238 236 215 210 223 231 224 236 249 245 261 268 278 69 275 237 252 36 43 359 20 358 325 270 267 268 271 78 112 135 139 147
217 216 217 218 217 214 217 213 213 182 156 151 148 171 183 247 118 148 146 162 184 172 184 214 69 104 111 114 110 122 100 99 97 98 82 206 267 169 232 171 226 254 101 127 109 333 290 285 275 268 264 260 241 241 243 238 238 228 215 217 226 240 239 254 244 251 273 209 212 253 262 80 297 231 224 350 316 268 275 272 255 235 197 195 189 168 152
214 215 213 212 210 209 210 212 212 196 163 155 173 167 142 172 142 162 166 154 209 149 171 65 172 159 154 178 147 126 104 150 136 129 252 203 205 233 242 221 204 49 198 130 161 245 276 246 274 281 261 243 236 242 242 235 233 233 220 216 216 229 242 239 261 227 255 238 234 243 317 296 264 270 216 197 229 229 218 268 287 144 201 191 164 165 173
231 234 228 217 213 215 212 211 208 199 168 168 143 125 160 170 135 152 200 101 162 153 193 200 200 194 194 195 175 186 213 211 199 240 114 19 187 231 199 132 84 130 115 184 219 214 213 275 287 267 285 241 247 242 7 300 300 274 261 245 227 229 232 239 254 243 238 267 275 278 271 259 284 186 323 333 297 25 352 85 275 146 208 188 162 169 178
231 229 228 231 236 238 227 216 211 204 175 167 137 166 180 169 135 109 146 137 140 249 227 198 138 135 146 165 178 176 185 174 187 148 232 197 231 284 188 17 321 127 96 102 224 141 236 184 233 215 243 230 286 60 280 70 319 130 53 11 203 235 238 243 240 267 262 266 261 255 256 259 112 239 232 145 136 278 214 177 281 175 180 180 161 188 191
231 230 229 227 227 226 230 236 225 213 194 166 162 159 185 174 153 157 144 170 196 211 44 171 162 116 103 105 119 207 199 192 179 178 212 207 183 220 307 331 305 174 185 177 204 147 192 186 329 250 312 139 82 249 355 301 264 304 120 74 82 155 214 204 237 240 233 248 247 253 248 262 318 267 260 162 165 162 276 293 286 96 205 195 192 204 201
231 230 228 227 225 222 222 224 225 228 227 179 157 169 171 184 177 130 125 191 195 257 191 170 164 171 182 171 171 138 99 119 91 122 186 93 73 220 226 56 154 257 189 162 202 130 205 191 217 236 238 218 142 339 258 103 166 216 182 229 192 165 254 205 226 231 241 239 249 256 266 261 211 223 157 126 170 121 261 259 310 179 206 195 196 220 219
239 235 233 231 230 228 225 222 222 220 225 212 164 153 210 175 183 162 154 191 204 239 166 181 173 173 143 77 132 151 186 173 157 154 177 130 221 192 144 230 216 170 172 172 242 168 208 227 133 190 220 268 115 206 255 123 238 49 175 266 246 242 139 284 241 229 237 239 255 255 279 241 190 41 133 166 98 230 256 307 126 158 205 206 205 219 230
239 239 238 236 237 236 232 230 224 223 221 214 170 198 175 181 181 177 177 199 209 237 208 182 184 210 192 176 171 165 148 164 193 175 177 183 120 110 136 195 210 97 62 144 205 206 164 222 215 182 215 229 243 152 332 233 33 189 228 218 254 228 167 231 232 188 303 236 260 268 266 38 149 126 75 203 205 276 80 139 238 191 193 191 215 219 237
239 237 232 231 234 234 233 231 229 228 224 221 202 185 201 188 185 197 194 188 208 243 243 181 196 211 206 214 205 186 171 195 181 198 208 163 163 126 184 216 179 143 191 167 181 217 174 206 164 190 246 224 235 119 216 178 290 264 211 237 256 195 258 251 251 174 260 256 235 218 282 340 155 167 212 178 214 112 175 231 270 187 196 228 227 225 228
247 250 248 243 236 234 232 228 228 229 226 225 215 186 217 181 183 196 203 188 206 222 284 189 196 213 216 221 209 202 209 218 198 170 164 180 207 205 187 130 181 156 179 123 67 26 303 138 27 105 223 210 260 222 156 219 255 236 353 101 269 182 219 230 260 154 181 248 266 261 331 155 205 221 254 266 245 226 224 225 255 282 262 211 229 247 238
239 242 243 244 243 239 234 231 230 228 228 227 221 183 215 163 190 191 163 210 244 310 148 203 206 267 277 249 234 221 226 225 189 175 179 199 211 217 208 190 217 191 154 191 191 196 160 144 209 164 36 226 204 228 240 221 265 220 240 195 238 249 240 46 355 240 257 266 260 269 271 255 210 223 243 256 256 263 255 243 266 243 247 242 243 257 264
238 238 238 238 242 243 238 233 230 229 227 225 220 183 207 180 170 132 171 208 204 229 235 221 225 226 215 227 213 207 227 219 212 208 197 197 212 226 221 233 122 140 213 206 188 188 173 157 203 159 235 218 106 216 234 238 228 221 255 259 230 243 222 207 244 265 274 267 261 231 250 263 265 258 227 222 241 257 260 261 252 258 257 249 236 251 259
242 241 239 238 236 238 242 240 235 234 230 227 222 209 149 126 161 168 162 190 204 200 231 193 216 228 224 216 219 217 218 209 185 206 207 205 214 216 222 197 180 194 210 182 141 97 116 178 201 181 225 214 165 239 229 245 255 172 228 253 253 265 197 214 236 248 250 259 265 265 264 263 263 261 273 266 248 236 243 244 250 259 261 257 257 239 247
239 240 240 240 239 239 239 238 236 234 233 230 222 176 190 188 165 174 186 215 69 183 228 240 255 68 174 180 211 220 197 191 195 204 210 212 212 219 229 164 216 228 229 131 167 182 169 202 202 221 215 240 186 233 235 226 251 237 237 248 235 237 114 212 200 243 252 262 264 266 270 270 267 254 238 243 253 261 261 254 249 251 256 245 200 214 246
247 248 244 241 240 237 236 237 234 233 231 230 224 199 186 178 169 177 183 179 172 269 216 239 223 291 343 219 209 91 165 181 192 209 218 219 218 222 227 232 225 158 164 174 197 189 195 216 205 224 207 217 196 230 246 241 237 243 242 250 240 241 234 195 219 256 256 250 253 253 264 272 268 255 243 243 248 255 256 257 237 236 242 238 215 168 133
242 240 240 241 239 239 235 234 235 235 234 233 228 193 181 187 194 189 184 179 187 224 89 194 218 248 79 266 218 185 184 187 194 204 211 215 215 209 215 208 191 181 189 166 190 202 206 208 223 201 182 207 218 233 222 250 255 250 249 250 218 232 239 223 238 236 252 251 249 236 243 262 269 275 274 263 234 218 242 244 244 229 220 195 187 189 179
245 246 245 240 240 239 237 236 239 235 231 229 72 94 98 202 191 199 199 193 197 225 251 250 73 73 241 262 82 180 185 179 188 200 206 213 212 211 208 202 198 211 198 196 209 204 209 221 207 198 214 165 203 232 207 213 211 231 236 239 227 230 232 227 235 250 259 264 267 261 249 260 272 274 283 275 186 216 237 247 281 228 154 148 162 187 220
246 245 244 245 245 242 237 233 232 236 231 180 124 116 178 224 203 204 193 183 189 179 200 192 226 244 13 60 231 184 170 188 197 201 205 208 209 204 205 202 211 210 204 209 210 217 210 219 226 225 202 155 198 201 204 220 230 237 245 246 244 241 220 225 239 241 250 253 256 258 262 263 267 293 338 43 164 205 236 233 188 146 113 107 152 113 75
244 245 246 243 243 244 241 237 233 231 224 134 147 131 180 231 204 187 189 187 177 162 201 182 227 47 317 249 161 186 173 180 192 200 207 206 207 206 210 207 226 198 213 204 212 226 203 221 212 222 192 184 205 205 207 215 237 247 249 241 240 233 230 235 230 229 242 253 260 268 274 271 265 11 259 200 176 169 132 101 85 84 86 95 70 28 44
247 246 245 243 240 238 239 241 239 232 198 159 196 189 184 226 119 162 179 167 146 152 155 195 229 208 245 249 213 273 179 186 181 193 211 201 224 215 210 183 212 199 206 217 220 236 218 223 226 229 216 198 200 227 207 217 229 244 252 242 232 230 234 236 237 240 243 250 264 278 269 267 227 218 261 94 125 107 117 109 103 99 81 84 53 50 38
244 245 246 246 243 243 240 238 240 233 201 205 207 340 293 241 156 156 159 137 131 181 174 191 191 183 210 231 57 271 139 116 183 183 223 195 215 182 210 195 213 212 204 224 202 228 203 206 219 236 228 163 192 206 209 215 229 239 248 252 242 242 250 248 249 252 255 235 191 235 255 267 300 50 69 119 110 122 126 121 91 75 78 74 88 122 120
249 248 247 244 246 245 245 238 236 239 227 127 230 220 213 176 153 149 144 140 146 157 143 170 184 189 224 24 60 190 158 165 192 177 217 181 193 183 198 155 185 198 195 208 208 190 229 224 225 226 127 214 209 220 231 231 235 245 251 250 254 257 256 259 259 258 233 160 223 283 342 46 88 129 112 125 130 104 102 91 91 94 129 145 152 126 100
251 248 245 244 242 246 248 248 240 218 186 201 226 225 149 158 155 157 152 158 134 192 161 217 159 193 197 175 225 209 167 146 173 184 200 176 161 192 173 172 165 180 209 154 226 213 222 213 171 184 215 206 212 230 232 238 236 239 241 249 249 251 261 267 261 257 138 107 97 116 80 141 150 205 197 159 144 142 132 128 124 125 159 162 175 175 134
250 248 246 246 246 243 252 258 227 191 185 201 215 161 167 168 164 168 171 184 148 157 183 192 174 204 198 219 225 193 137 197 91 138 183 111 355 184 183 177 226 212 127 178 220 203 220 178 151 228 200 211 220 218 232 230 234 238 240 244 248 247 251 254 265 104 97 73 95 109 138 176 215 205 144 163 143 121 127 167 161 137 152 194 172 282 303
245 247 248 254 253 175 223 216 176 199 220 155 142 161 165 159 146 148 169 273 306 40 159 159 177 201 195 203 64 207 147 181 149 115 142 169 191 182 163 181 217 162 167 217 209 219 222 172 192 224 209 220 231 221 226 235 241 246 249 250 253 174 136 87 100 119 102 102 97 185 184 215 217 204 178 181 141 77 12 329 12 5 309 294 289 283 283
248 245 227 150 136 215 229 206 198 178 129 133 139 147 161 152 186 168 170 200 195 117 224 159 212 173 98 174 219 163 151 186 130 161 205 215 152 225 195 214 214 188 222 212 223 153 104 172 211 219 236 232 242 248 243 242 246 258 267 67 138 118 106 112 131 126 129 281 268 216 228 250 243 217 173 156 113 14 357 333 324 308 290 288 291 298 304
250 226 200 173 166 215 210 225 179 145 128 122 103 144 213 136 140 182 185 155 155 198 186 195 201 162 166 193 194 150 184 166 174 175 185 188 166 231 155 188 214 173 252 120 253 124 215 209 212 225 242 239 242 243 238 230 122 69 69 70 96 113 124 117 137 172 204 230 58 68 119 224 212 158 99 126 171 242 286 298 286 295 298 295 293 296 285
119 189 193 152 209 213 11 160 145 125 127 150 205 151 201 180 178 205 107 141 196 243 159 207 184 181 182 187 167 198 164 159 171 201 188 173 154 180 176 85 249 156 223 203 214 118 190 216 205 227 247 230 236 239 204 173 156 101 94 96 97 98 102 104 99 79 96 94 95 90 72 79 54 86 114 219 299 277 280 276 282 288 290 290 289 290 283
186 108 164 205 170 125 186 140 96 43 117 134 126 308 120 194 197 141 145 226 189 217 238 165 134 170 182 196 188 210 170 155 358 94 135 191 153 89 141 185 120 138 240 210 161 88 101 104 212 216 233 224 235 208 125 104 116 107 105 108 106 105 108 102 93 87 96 95 93 94 89 80 106 121 212 253 258 268 273 279 280 270 275 283 286 287 295
185 182 151 108 108 128 124 134 143 117 136 192 152 198 176 203 69 9 197 183 200 156 244 174 166 177 193 187 196 168 203 110 130 151 138 214 187 170 201 139 256 186 223 185 90 110 112 230 219 242 237 236 204 70 158 139 128 125 123 120 120 114 111 114 110 85 92 101 112 98 86 95 110 211 232 225 232 252 269 282 284 279 269 267 274 280 289
153 135 125 111 113 188 150 178 203 153 168 170 129 204 163 157 204 175 201 223 330 123 203 38 328 79 3 68 39 338 168 150 153 168 162 196 100 80 157 169 112 212 214 56 118 116 199 222 232 241 231 217 141 164 130 129 119 120 120 121 117 122 120 117 120 120 119 120 141 137 233 210 251 247 241 225 258 276 268 260 265 279 289 291 289 290 284
91 356 88 156 146 226 148 218 154 80 206 165 169 191 158 176 216 139 147 201 165 214 182 164 189 163 185 186 156 140 93 127 122 92 48 289 104 181 141 194 201 215 63 155 170 207 224 234 233 243 193 85 197 173 143 136 137 120 120 111 112 119 124 118 117 111 112 83 76 63 158 227 256 255 248 231 230 250 271 277 270 268 271 281 273 267 269
134 192 126 138 188 190 118 222 111 171 202 198 188 189 173 200 188 178 192 186 169 193 181 192 163 178 164 188 56 311 134 167 327 110 201 133 147 216 149 221 122 46 167 209 189 271 5 265 249 252 231 217 179 168 144 138 139 139 133 125 131 119 124 119 112 101 105 328 269 245 237 245 257 263 249 252 250 241 252 269 277 281 272 267 271 272 269
180 170 157 171 208 205 169 213 145 191 250 172 195 180 171 211 157 199 208 109 151 111 163 177 170 142 114 301 137 177 109 120 128 185 132 105 134 219 198 36 88 153 206 42 220 219 228 238 231 232 225 142 130 133 123 117 97 102 125 142 147 121 119 121 133 151 201 226 251 257 275 271 268 279 283 272 265 264 255 261 266 262 266 269 267 267 270
151 142 124 150 191 205 117 188 208 205 163 183 194 188 195 189 186 175 141 154 159 148 87 93 132 156 144 177 100 24 49 71 134 175 98 117 183 188 73 131 203 178 196 222 221 236 251 244 236 49 111 125 123 124 122 120 123 116 109 108 117 130 120 118 190 214 250 259 275 285 281 279 276 268 274 287 284 274 271 272 273 263 259 257 265 270 274
185 155 129 163 202 168 187 214 116 49 347 127 249 333 303 277 127 196 229 180 151 141 136 128 111 85 56 304 62 146 142 183 101 237 164 173 67 74 154 128 224 233 197 197 229 219 233 310 148 173 105 102 126 117 125 123 132 130 128 136 130 135 165 213 228 251 236 240 255 259 262 269 259 269 272 282 289 291 285 275 269 268 263 266 265 265 265
97 134 174 186 200 133 330 7 139 173 171 340 295 351 138 154 193 164 130 186 153 159 158 142 165 123 165 148 127 134 187 202 137 184 100 80 157 192 167 213 175 254 247 201 236 236 236 117 133 103 126 115 123 127 127 140 138 145 144 144 161 193 231 243 250 260 257 265 250 253 271 293 302 292 287 282 278 274 271 271 272 271 267 262 266 267 271
78 36 45 92 80 333 279 80 101 243 324 350 39 228 258 224 140 136 232 119 124 122 127 88 85 85 148 116 139 99 178 183 149 117 119 189 191 195 92 218 216 205 232 208 212 220 145 150 128 126 124 127 124 131 138 136 136 127 128 132 121 199 238 248 261 251 250 249 269 275 273 278 278 265 259 266 276 287 287 283 277 273 273 266 256 257 257
350 80 109 350 143 200 137 151 178 204 249 233 198 217 178 192 162 168 185 143 142 103 66 131 162 109 118 70 126 159 213 135 120 182 166 179 146 154 189 216 225 215 217 53 53 119 153 157 149 134 139 144 147 137 126 139 133 123 106 117 156 169 257 252 251 257 252 252 262 287 283 264 258 262 272 274 274 278 283 283 277 264 261 270 261 251 254
86 103 196 110 86 29 320 298 15 204 216 220 169 204 153 179 195 182 208 145 149 164 176 143 104 114 107 184 203 166 51 61 186 86 131 252 153 156 210 211 226 136 172 167 159 143 132 136 189 160 159 153 158 158 138 120 131 115 177 202 201 232 248 263 267 276 289 301 278 256 272 271 274 274 280 274 274 285 274 282 292 290 281 265 272 266 254